Schneifelwetter: Wetterstation Hallschlag, 537 m . NN
Wetterdaten: Sonntag, 21.02.2010
Datum Zeit Temp. A. Feuchte A. Luftdruck Regen Wind Richtung Richtung Sonnenschein Helligkeit T Regen Taupunkt Windchill
21.02.2010 00:00 -1,5 C 95 % 998 hPa 0,0 l/m 31,0 km/h (5 Bft) S-SW22.5 200 0 min 0 lux 0,00 min -2,2 C -15,8 C
21.02.2010 00:15 -1,5 C 95 % 998 hPa 0,0 l/m 24,3 km/h (4 Bft) SW45 225 0 min 0 lux 0,00 min -2,2 C -13,5 C
21.02.2010 00:30 -1,5 C 95 % 998 hPa 0,0 l/m 21,6 km/h (4 Bft) S-SW22.5 200 0 min 0 lux 0,00 min -2,2 C -12,3 C
21.02.2010 00:46 -1,6 C 95 % 998 hPa 0,0 l/m 20,6 km/h (4 Bft) S22.5 185 0 min 0 lux 0,00 min -2,3 C -12,0 C
21.02.2010 01:01 -1,7 C 95 % 998 hPa 0,0 l/m 18,8 km/h (3 Bft) S-SW45 195 0 min 0 lux 0,00 min -2,4 C -11,2 C
21.02.2010 01:16 -1,7 C 95 % 998 hPa 0,0 l/m 12,3 km/h (3 Bft) S22.5 190 0 min 0 lux 0,00 min -2,4 C -7,2 C
21.02.2010 01:31 -1,8 C 96 % 998 hPa 0,0 l/m 17,3 km/h (3 Bft) S45 185 0 min 0 lux 0,00 min -2,4 C -10,5 C
21.02.2010 01:46 -1,8 C 96 % 998 hPa 0,0 l/m 20,2 km/h (4 Bft) S22.5 185 0 min 0 lux 0,00 min -2,4 C -12,1 C
21.02.2010 02:01 -1,8 C 96 % 998 hPa 0,0 l/m 13,8 km/h (3 Bft) S-SW22.5 195 0 min 0 lux 0,00 min -2,4 C -8,4 C
21.02.2010 02:16 -1,8 C 96 % 998 hPa 0,6 l/m 12,2 km/h (2 Bft) SW45 230 0 min 0 lux 15,00 min -2,4 C -7,2 C
21.02.2010 02:31 -1,8 C 96 % 997 hPa 0,3 l/m 12,8 km/h (3 Bft) SW45 235 0 min 0 lux 15,00 min -2,4 C -7,7 C
21.02.2010 02:46 -1,8 C 96 % 997 hPa 0,3 l/m 10,0 km/h (2 Bft) S45 190 0 min 0 lux 15,00 min -2,4 C -5,4 C
21.02.2010 03:01 -1,8 C 96 % 997 hPa 0,3 l/m 16,1 km/h (3 Bft) SW45 225 0 min 0 lux 15,00 min -2,4 C -9,8 C
21.02.2010 03:16 -1,8 C 97 % 997 hPa 0,0 l/m 15,9 km/h (3 Bft) SW45 225 0 min 0 lux 0,00 min -2,2 C -9,7 C
21.02.2010 03:31 -1,8 C 97 % 997 hPa 0,3 l/m 20,1 km/h (4 Bft) SW45 220 0 min 0 lux 15,00 min -2,2 C -12,0 C
21.02.2010 03:46 -1,7 C 97 % 997 hPa 0,0 l/m 17,0 km/h (3 Bft) SW45 225 0 min 0 lux 0,00 min -2,1 C -10,2 C
21.02.2010 04:01 -1,7 C 97 % 997 hPa 0,3 l/m 17,7 km/h (3 Bft) SW45 220 0 min 0 lux 15,00 min -2,1 C -10,6 C
21.02.2010 04:16 -1,7 C 97 % 997 hPa 0,0 l/m 19,2 km/h (3 Bft) W-SW45 240 0 min 0 lux 0,00 min -2,1 C -11,4 C
21.02.2010 04:31 -1,7 C 97 % 997 hPa 0,3 l/m 21,3 km/h (4 Bft) SW22.5 235 0 min 0 lux 15,00 min -2,1 C -12,4 C
21.02.2010 04:46 -1,7 C 97 % 997 hPa 0,0 l/m 18,6 km/h (3 Bft) SW45 230 0 min 0 lux 0,00 min -2,1 C -11,1 C
21.02.2010 05:01 -1,7 C 97 % 997 hPa 0,0 l/m 21,6 km/h (4 Bft) SW45 220 0 min 0 lux 0,00 min -2,1 C -12,6 C
21.02.2010 05:16 -1,6 C 97 % 997 hPa 0,0 l/m 21,6 km/h (4 Bft) SW22.5 225 0 min 0 lux 0,00 min -2,0 C -12,5 C
21.02.2010 05:31 -1,6 C 97 % 997 hPa 0,0 l/m 23,1 km/h (4 Bft) W-SW67.5 240 0 min 0 lux 0,00 min -2,0 C -13,1 C
21.02.2010 05:46 -1,6 C 98 % 997 hPa 0,0 l/m 23,2 km/h (4 Bft) SW45 235 0 min 0 lux 0,00 min -1,9 C -13,2 C
21.02.2010 06:01 -1,6 C 98 % 997 hPa 0,0 l/m 22,6 km/h (4 Bft) W-SW22.5 250 0 min 0 lux 0,00 min -1,9 C -12,9 C
21.02.2010 06:15 -1,6 C 98 % 997 hPa 0,0 l/m 23,1 km/h (4 Bft) W-SW22.5 250 0 min 0 lux 0,00 min -1,9 C -13,1 C
21.02.2010 06:30 -1,6 C 97 % 997 hPa 0,0 l/m 21,3 km/h (4 Bft) W22.5 260 0 min 0 lux 0,00 min -2,0 C -12,3 C
21.02.2010 06:45 -1,6 C 97 % 997 hPa 0,0 l/m 19,2 km/h (3 Bft) W-SW22.5 250 0 min 0 lux 0,00 min -2,0 C -11,3 C
21.02.2010 07:00 -1,7 C 97 % 997 hPa 0,0 l/m 18,9 km/h (3 Bft) W-SW22.5 250 0 min 0 lux 0,00 min -2,1 C -11,3 C
21.02.2010 07:15 -1,6 C 97 % 997 hPa 0,0 l/m 16,1 km/h (3 Bft) W-SW22.5 245 0 min 0 lux 0,00 min -2,0 C -9,6 C
21.02.2010 07:30 -1,7 C 97 % 997 hPa 0,0 l/m 16,1 km/h (3 Bft) W-SW22.5 250 0 min 320 lux 0,00 min -2,1 C -9,7 C
21.02.2010 07:45 -1,8 C 97 % 997 hPa 0,0 l/m 11,8 km/h (2 Bft) W-SW22.5 245 0 min 727 lux 0,00 min -2,2 C -6,9 C
21.02.2010 08:00 -1,7 C 97 % 998 hPa 0,0 l/m 14,8 km/h (3 Bft) SW22.5 225 0 min 1,39 klux 0,00 min -2,1 C -8,9 C
21.02.2010 08:15 -1,5 C 97 % 998 hPa 0,0 l/m 16,7 km/h (3 Bft) W-SW22.5 240 0 min 2,85 klux 0,00 min -1,9 C -9,8 C
21.02.2010 08:30 -1,4 C 97 % 997 hPa 0,0 l/m 23,3 km/h (4 Bft) W-SW45 240 0 min 5,56 klux 0,00 min -1,8 C -12,9 C
21.02.2010 08:45 -1,3 C 97 % 998 hPa 0,0 l/m 18,3 km/h (3 Bft) SW45 235 0 min 7,21 klux 0,00 min -1,7 C -10,5 C
21.02.2010 09:00 -1,2 C 97 % 997 hPa 0,0 l/m 13,5 km/h (3 Bft) W-SW45 240 0 min 8,40 klux 0,00 min -1,6 C -7,5 C
21.02.2010 09:15 -1,0 C 96 % 998 hPa 0,0 l/m 18,1 km/h (3 Bft) W-SW22.5 245 0 min 10,6 klux 0,00 min -1,6 C -10,0 C
21.02.2010 09:30 -0,8 C 95 % 998 hPa 0,0 l/m 16,7 km/h (3 Bft) W-SW45 245 0 min 11,4 klux 0,00 min -1,5 C -9,0 C
21.02.2010 09:45 -0,7 C 94 % 998 hPa 0,0 l/m 19,0 km/h (3 Bft) SW22.5 225 0 min 14,4 klux 0,00 min -1,5 C -10,0 C
21.02.2010 10:01 -0,5 C 94 % 998 hPa 0,0 l/m 20,9 km/h (4 Bft) W-SW22.5 245 0 min 18,2 klux 0,00 min -1,3 C -10,7 C
21.02.2010 10:16 -0,2 C 93 % 998 hPa 0,0 l/m 18,9 km/h (3 Bft) SW45 230 0 min 21,8 klux 0,00 min -1,2 C -9,4 C
21.02.2010 10:30 0,2 C 91 % 998 hPa 0,0 l/m 16,1 km/h (3 Bft) SW45 220 0 min 20,6 klux 0,00 min -1,1 C -7,4 C
21.02.2010 10:45 0,4 C 90 % 998 hPa 0,0 l/m 19,6 km/h (3 Bft) SW45 230 0 min 25,1 klux 0,00 min -1,0 C -8,9 C
21.02.2010 11:00 0,7 C 88 % 998 hPa 0,0 l/m 20,0 km/h (4 Bft) W-SW22.5 245 15 min 37,8 klux 0,00 min -1,1 C -8,7 C
21.02.2010 11:15 1,1 C 88 % 998 hPa 0,0 l/m 21,4 km/h (4 Bft) SW45 225 15 min 36,5 klux 0,00 min -0,7 C -8,8 C
21.02.2010 11:31 1,2 C 86 % 998 hPa 0,0 l/m 22,5 km/h (4 Bft) W-SW45 240 16 min 30,8 klux 0,00 min -0,9 C -9,1 C
21.02.2010 11:46 1,2 C 87 % 998 hPa 0,0 l/m 23,3 km/h (4 Bft) SW45 225 15 min 29,0 klux 0,00 min -0,7 C -9,5 C
21.02.2010 12:00 0,9 C 87 % 998 hPa 0,0 l/m 20,0 km/h (4 Bft) SW22.5 230 14 min 26,6 klux 0,00 min -1,0 C -8,5 C
21.02.2010 12:15 1,2 C 88 % 998 hPa 0,0 l/m 18,5 km/h (3 Bft) SW45 225 15 min 31,1 klux 0,00 min -0,6 C -7,4 C
21.02.2010 12:30 1,3 C 86 % 998 hPa 0,0 l/m 17,8 km/h (3 Bft) SW45 230 15 min 29,8 klux 0,00 min -0,8 C -6,9 C
21.02.2010 12:45 1,3 C 87 % 998 hPa 0,0 l/m 23,8 km/h (4 Bft) SW45 225 15 min 36,5 klux 0,00 min -0,6 C -9,5 C
21.02.2010 13:00 2,1 C 87 % 997 hPa 0,0 l/m 17,5 km/h (3 Bft) SW22.5 215 15 min 55,8 klux 0,00 min 0,2 C -5,8 C
21.02.2010 13:16 2,4 C 85 % 997 hPa 0,0 l/m 24,1 km/h (4 Bft) SW22.5 230 16 min 38,5 klux 0,00 min 0,1 C -8,1 C
21.02.2010 13:31 2,5 C 84 % 997 hPa 0,0 l/m 23,0 km/h (4 Bft) SW45 235 15 min 52,9 klux 0,00 min 0,1 C -7,6 C
21.02.2010 13:45 2,3 C 85 % 997 hPa 0,0 l/m 30,9 km/h (5 Bft) SW45 230 14 min 36,8 klux 0,00 min 0,0 C -10,4 C
21.02.2010 14:00 2,5 C 85 % 997 hPa 0,0 l/m 22,1 km/h (4 Bft) SW45 215 15 min 46,0 klux 0,00 min 0,2 C -7,3 C
21.02.2010 14:15 2,7 C 83 % 997 hPa 0,0 l/m 21,0 km/h (4 Bft) S-SW45 200 15 min 44,9 klux 0,00 min 0,1 C -6,6 C
21.02.2010 14:30 2,1 C 84 % 997 hPa 0,0 l/m 26,1 km/h (4 Bft) S-SW45 205 15 min 31,0 klux 0,00 min -0,3 C -9,2 C
21.02.2010 14:45 1,9 C 85 % 997 hPa 0,0 l/m 22,0 km/h (4 Bft) S-SW45 210 15 min 28,6 klux 0,00 min -0,3 C -8,0 C
21.02.2010 15:01 1,5 C 87 % 997 hPa 0,0 l/m 25,3 km/h (4 Bft) SW45 230 0 min 19,7 klux 0,00 min -0,4 C -9,8 C
21.02.2010 15:16 1,5 C 88 % 997 hPa 0,0 l/m 25,0 km/h (4 Bft) SW45 215 15 min 27,5 klux 0,00 min -0,3 C -9,7 C
21.02.2010 15:30 1,4 C 88 % 997 hPa 0,0 l/m 28,7 km/h (4 Bft) S-SW45 205 0 min 20,4 klux 0,00 min -0,4 C -11,0 C
21.02.2010 15:45 1,3 C 88 % 997 hPa 0,0 l/m 17,4 km/h (3 Bft) S-SW45 200 0 min 20,0 klux 0,00 min -0,5 C -6,7 C
21.02.2010 16:00 1,2 C 89 % 997 hPa 0,0 l/m 18,5 km/h (3 Bft) S-SW45 195 0 min 14,6 klux 0,00 min -0,4 C -7,4 C
21.02.2010 16:15 1,3 C 90 % 996 hPa 0,0 l/m 21,5 km/h (4 Bft) S-SW45 205 15 min 26,6 klux 0,00 min -0,2 C -8,6 C
21.02.2010 16:31 1,2 C 90 % 996 hPa 0,0 l/m 19,5 km/h (3 Bft) SW67.5 220 0 min 12,7 klux 0,00 min -0,3 C -7,9 C
21.02.2010 16:46 1,1 C 89 % 996 hPa 0,0 l/m 29,1 km/h (5 Bft) SW45 220 0 min 10,8 klux 0,00 min -0,5 C -11,6 C
21.02.2010 17:00 0,9 C 89 % 996 hPa 0,0 l/m 28,8 km/h (4 Bft) SW45 225 0 min 8,50 klux 0,00 min -0,7 C -11,8 C
21.02.2010 17:15 0,7 C 90 % 996 hPa 0,0 l/m 21,5 km/h (4 Bft) S-SW45 210 0 min 4,00 klux 0,00 min -0,7 C -9,4 C
21.02.2010 17:30 0,6 C 90 % 996 hPa 0,0 l/m 19,0 km/h (3 Bft) S-SW45 195 0 min 2,54 klux 0,00 min -0,8 C -8,4 C
21.02.2010 17:45 0,5 C 91 % 996 hPa 0,0 l/m 15,0 km/h (3 Bft) S-SW45 210 0 min 1,84 klux 0,00 min -0,8 C -6,4 C
21.02.2010 18:00 0,1 C 91 % 995 hPa 0,0 l/m 16,8 km/h (3 Bft) S22.5 190 0 min 1,18 klux 0,00 min -1,2 C -7,9 C
21.02.2010 18:16 -0,4 C 92 % 996 hPa 0,0 l/m 14,2 km/h (3 Bft) S-SW45 195 0 min 399 lux 0,00 min -1,5 C -7,0 C
21.02.2010 18:31 -0,5 C 94 % 996 hPa 0,0 l/m 19,4 km/h (3 Bft) SW22.5 215 0 min 58 lux 0,00 min -1,3 C -10,0 C
21.02.2010 18:45 -0,6 C 94 % 996 hPa 0,0 l/m 20,1 km/h (4 Bft) SW22.5 215 0 min 16 lux 0,00 min -1,4 C -10,5 C
21.02.2010 19:00 -0,6 C 94 % 996 hPa 0,0 l/m 18,6 km/h (3 Bft) S45 190 0 min 3 lux 0,00 min -1,4 C -9,7 C
21.02.2010 19:15 -0,6 C 95 % 996 hPa 0,0 l/m 20,6 km/h (4 Bft) S-SW22.5 195 0 min 0 lux 0,00 min -1,3 C -10,7 C
21.02.2010 19:30 -0,6 C 95 % 995 hPa 0,0 l/m 18,8 km/h (3 Bft) S45 190 0 min 0 lux 0,00 min -1,3 C -9,8 C
21.02.2010 19:45 -0,6 C 95 % 995 hPa 0,0 l/m 17,3 km/h (3 Bft) S22.5 180 0 min 0 lux 0,00 min -1,3 C -9,0 C
21.02.2010 20:01 -0,6 C 96 % 995 hPa 0,0 l/m 22,0 km/h (4 Bft) S22.5 175 0 min 0 lux 0,00 min -1,2 C -11,3 C
21.02.2010 20:16 -0,6 C 96 % 995 hPa 0,0 l/m 15,6 km/h (3 Bft) S22.5 175 0 min 0 lux 0,00 min -1,2 C -8,1 C
21.02.2010 20:30 -0,7 C 96 % 995 hPa 0,0 l/m 14,4 km/h (3 Bft) S22.5 175 0 min 0 lux 0,00 min -1,3 C -7,5 C
21.02.2010 20:45 -0,8 C 96 % 995 hPa 0,0 l/m 18,4 km/h (3 Bft) S22.5 180 0 min 0 lux 0,00 min -1,4 C -9,9 C
21.02.2010 21:00 -0,6 C 96 % 995 hPa 0,0 l/m 22,9 km/h (4 Bft) S22.5 180 0 min 0 lux 0,00 min -1,2 C -11,7 C
21.02.2010 21:15 -0,4 C 96 % 995 hPa 0,0 l/m 22,6 km/h (4 Bft) S45 185 0 min 0 lux 0,00 min -1,0 C -11,3 C
21.02.2010 21:31 -0,4 C 96 % 995 hPa 0,0 l/m 15,8 km/h (3 Bft) S-SW45 195 0 min 0 lux 0,00 min -1,0 C -7,9 C
21.02.2010 21:46 -0,4 C 96 % 995 hPa 0,0 l/m 17,4 km/h (3 Bft) S22.5 180 0 min 0 lux 0,00 min -1,0 C -8,8 C
21.02.2010 22:00 -0,3 C 97 % 995 hPa 0,0 l/m 21,6 km/h (4 Bft) S22.5 180 0 min 0 lux 0,00 min -0,7 C -10,7 C
21.02.2010 22:15 -0,2 C 97 % 995 hPa 0,0 l/m 18,5 km/h (3 Bft) S22.5 180 0 min 0 lux 0,00 min -0,6 C -9,2 C
21.02.2010 22:30 0,0 C 97 % 995 hPa 0,0 l/m 22,5 km/h (4 Bft) S45 175 0 min 0 lux 0,00 min -0,4 C -10,7 C
21.02.2010 22:45 0,1 C 97 % 995 hPa 0,0 l/m 21,3 km/h (4 Bft) S22.5 175 0 min 0 lux 0,00 min -0,3 C -10,1 C
21.02.2010 23:00 0,1 C 97 % 994 hPa 0,0 l/m 19,6 km/h (3 Bft) S22.5 170 0 min 0 lux 0,00 min -0,3 C -9,3 C
21.02.2010 23:16 0,1 C 97 % 994 hPa 0,0 l/m 23,5 km/h (4 Bft) S22.5 175 0 min 0 lux 0,00 min -0,3 C -11,0 C
21.02.2010 23:31 0,1 C 97 % 994 hPa 0,0 l/m 25,5 km/h (4 Bft) S45 185 0 min 0 lux 0,00 min -0,3 C -11,8 C
21.02.2010 23:45 0,0 C 97 % 994 hPa 0,0 l/m 20,4 km/h (4 Bft) S22.5 180 0 min 0 lux 0,00 min -0,4 C -9,8 C
_ Min-Zeit 01:31 14:15 23:00 - 02:46 - - - - - 01:01 00:00
Minimum _ -1,8 C 83 % 994 hPa - 10,0 km/h (2 Bft) - - - - - -2,4 C -15,8 C
_ Max-Zeit 14:15 05:46 00:00 02:16 00:00 - - 11:31 13:00 02:16 14:00 02:46
Maximum _ 2,7 C 98 % 998 hPa 0,6 l/m 31,0 km/h
S-SW (5 Bft)
- - 16 min 55,8 klux 15,00 min 0,2 C -5,4 C
Durchschnitt _ -0,3 C 93 % 997 hPa #2,4 l/m 19,9 km/h (4 Bft) SW - #4:30 h 9,5 klux #1:45 h -1,3 C -9,8 C